| time (UTC) | temp F | wind direction | speed MPH | gust MPH | rain 1hr in | rain 24hr in | rain mn in | humidity % | barometer mb |
| 20260508104005 | 52 | 202 | 7.0 | 11.0 | 0.00 | 0.05 | 0.05 | 79 | 1022.6 |
| 20260508103005 | 52 | 211 | 6.0 | 9.0 | 0.00 | 0.05 | 0.05 | 77 | 1022.5 |
| 20260508102005 | 53 | 236 | 2.0 | 7.0 | 0.00 | 0.05 | 0.05 | 76 | 1022.5 |
| 20260508101005 | 53 | 245 | 5.0 | 8.0 | 0.00 | 0.05 | 0.05 | 72 | 1022.5 |
| 20260508100005 | 53 | 222 | 4.0 | 8.0 | 0.00 | 0.05 | 0.05 | 74 | 1022.5 |
| 20260508094005 | 53 | 207 | 4.0 | 11.0 | 0.00 | 0.05 | 0.05 | 72 | 1022.5 |
| 20260508093005 | 53 | 210 | 3.0 | 9.0 | 0.00 | 0.05 | 0.05 | 77 | 1022.4 |
| 20260508092005 | 52 | 222 | 3.0 | 9.0 | 0.00 | 0.05 | 0.05 | 76 | 1022.2 |
| 20260508090005 | 51 | 202 | 7.0 | 11.0 | 0.00 | 0.05 | 0.05 | 80 | 1022.0 |
| 20260508084005 | 51 | 211 | 8.0 | 11.0 | 0.00 | 0.05 | 0.05 | 82 | 1021.8 |
| 20260508083005 | 51 | 201 | 8.0 | 14.0 | 0.00 | 0.05 | 0.05 | 84 | 1021.7 |
| 20260508080005 | 50 | 197 | 9.0 | 13.0 | 0.00 | 0.05 | 0.05 | 85 | 1021.4 |
| 20260508075005 | 49 | 183 | 8.0 | 13.0 | 0.00 | 0.05 | 0.05 | 83 | 1021.5 |
| 20260508074005 | 49 | 182 | 4.0 | 13.0 | 0.00 | 0.05 | 0.05 | 83 | 1021.7 |
| 20260508071004 | 49 | 186 | 9.0 | 13.0 | 0.00 | 0.05 | 0.05 | 78 | 1021.0 |
| 20260508070005 | 49 | 193 | 10.0 | 13.0 | 0.00 | 0.05 | 0.05 | 78 | 1021.0 |
| 20260508065004 | 49 | 202 | 11.0 | 13.0 | 0.00 | 0.05 | 0.05 | 79 | 1020.8 |
| 20260508063005 | 49 | 202 | 10.0 | 15.0 | 0.00 | 0.05 | 0.05 | 80 | 1021.0 |
| 20260508062005 | 49 | 200 | 12.0 | 14.0 | 0.00 | 0.05 | 0.05 | 79 | 1020.8 |
| 20260508061005 | 48 | 203 | 11.0 | 16.0 | 0.00 | 0.05 | 0.05 | 80 | 1020.8 |
| 20260508055005 | 48 | 206 | 11.0 | 18.0 | 0.00 | 0.05 | 0.05 | 84 | 1020.4 |
| 20260508054005 | 47 | 208 | 12.0 | 17.0 | 0.00 | 0.05 | 0.05 | 83 | 1020.2 |
| 20260508053005 | 47 | 194 | 12.0 | 17.0 | 0.00 | 0.05 | 0.05 | 86 | 1020.2 |
| 20260508052005 | 47 | 185 | 15.0 | 17.0 | 0.00 | 0.05 | 0.05 | 88 | 1020.1 |
| 20260508050005 | 46 | 202 | 15.0 | 22.0 | 0.00 | 0.05 | 0.05 | 88 | 1019.9 |
| 20260508045005 | 47 | 199 | 17.0 | 23.0 | 0.00 | 0.05 | 0.05 | 86 | 1019.8 |
| 20260508044005 | 47 | 186 | 15.0 | 21.0 | 0.01 | 0.05 | 0.05 | 84 | 1020.0 |
| 20260508043004 | 46 | 187 | 13.0 | 22.0 | 0.01 | 0.05 | 0.05 | 86 | 1019.9 |
| 20260508042005 | 46 | 184 | 16.0 | 22.0 | 0.01 | 0.05 | 0.05 | 86 | 1019.6 |
| 20260508035004 | 47 | 196 | 16.0 | 20.0 | 0.05 | 0.05 | 0.05 | 85 | 1019.8 |
| 20260508034005 | 47 | 186 | 9.0 | 20.0 | 0.04 | 0.04 | 0.04 | 86 | 1019.9 |
| 20260508033005 | 47 | 185 | 15.0 | 20.0 | 0.04 | 0.04 | 0.04 | 86 | 1020.0 |
| 20260508032005 | 47 | 163 | 14.0 | 20.0 | 0.04 | 0.04 | 0.04 | 87 | 1019.7 |
| 20260508030005 | 48 | 169 | 9.0 | 16.0 | 0.01 | 0.01 | 0.01 | 82 | 1019.9 |
| 20260508025005 | 49 | 165 | 10.0 | 17.0 | 0.00 | 0.00 | 0.00 | 77 | 1020.0 |
| 20260508024004 | 50 | 166 | 10.0 | 17.0 | 0.00 | 0.00 | 0.00 | 73 | 1019.9 |
| 20260508023005 | 50 | 165 | 12.0 | 22.0 | 0.00 | 0.00 | 0.00 | 73 | 1019.7 |
| 20260508022005 | 51 | 173 | 16.0 | 22.0 | 0.00 | 0.00 | 0.00 | 66 | 1019.9 |
| 20260508021004 | 51 | 171 | 10.0 | 15.0 | 0.00 | 0.00 | 0.00 | 67 | 1020.1 |
| 20260508015005 | 51 | 183 | 10.0 | 15.0 | 0.00 | 0.00 | 0.00 | 67 | 1020.3 |
| 20260508014005 | 52 | 188 | 10.0 | 20.0 | 0.00 | 0.00 | 0.00 | 65 | 1020.2 |
| 20260508013005 | 52 | 213 | 4.0 | 16.0 | 0.00 | 0.00 | 0.00 | 68 | 1020.3 |
| 20260508012005 | 51 | 166 | 8.0 | 13.0 | 0.00 | 0.00 | 0.00 | 72 | 1020.2 |
| 20260508011005 | 52 | 175 | 9.0 | 16.0 | 0.00 | 0.00 | 0.00 | 71 | 1020.0 |
| 20260508010005 | 52 | 176 | 12.0 | 18.0 | 0.00 | 0.00 | 0.00 | 68 | 1020.0 |
| 20260508005004 | 52 | 174 | 10.0 | 21.0 | 0.00 | 0.00 | 0.00 | 68 | 1019.9 |
| 20260508004005 | 52 | 174 | 15.0 | 20.0 | 0.00 | 0.00 | 0.00 | 68 | 1019.8 |
| 20260508003005 | 52 | 179 | 14.0 | 18.0 | 0.00 | 0.00 | 0.00 | 69 | 1019.9 |
| 20260508002005 | 52 | 177 | 14.0 | 20.0 | 0.00 | 0.00 | 0.00 | 72 | 1019.8 |
| 20260508001004 | 52 | 178 | 17.0 | 21.0 | 0.00 | 0.00 | 0.00 | 68 | 1020.0 |
| 20260508000005 | 52 | 179 | 11.0 | 14.0 | 0.00 | 0.00 | 0.00 | 69 | 1020.4 |
| 20260507235005 | 52 | 185 | 9.0 | 15.0 | 0.00 | 0.00 | 0.00 | 70 | 1020.7 |
| 20260507234005 | 52 | 178 | 9.0 | 15.0 | 0.00 | 0.00 | 0.00 | 73 | 1020.5 |
| 20260507233004 | 52 | 191 | 10.0 | 13.0 | 0.00 | 0.00 | 0.00 | 74 | 1020.9 |
| 20260507232004 | 52 | 200 | 9.0 | 11.0 | 0.00 | 0.00 | 0.00 | 77 | 1020.8 |
| 20260507230005 | 52 | 212 | 9.0 | 13.0 | 0.00 | 0.00 | 0.00 | 77 | 1021.0 |
| 20260507225005 | 52 | 214 | 8.0 | 11.0 | 0.00 | 0.00 | 0.00 | 78 | 1021.2 |
| 20260507224004 | 51 | 208 | 8.0 | 14.0 | 0.00 | 0.00 | 0.00 | 80 | 1020.9 |
| 20260507223004 | 51 | 212 | 11.0 | 15.0 | 0.00 | 0.00 | 0.00 | 79 | 1021.1 |
| 20260507222004 | 51 | 212 | 12.0 | 17.0 | 0.00 | 0.00 | 0.00 | 79 | 1021.0 |
| 20260507221005 | 51 | 208 | 13.0 | 18.0 | 0.00 | 0.00 | 0.00 | 78 | 1020.9 |
| 20260507220008 | 51 | 213 | 14.0 | 18.0 | 0.00 | 0.00 | 0.00 | 78 | 1020.9 |
| 20260507215004 | 51 | 206 | 11.0 | 16.0 | 0.00 | 0.00 | 0.00 | 77 | 1020.9 |
| 20260507214005 | 51 | 209 | 11.0 | 14.0 | 0.00 | 0.00 | 0.00 | 79 | 1021.1 |
| 20260507213004 | 51 | 205 | 9.0 | 14.0 | 0.00 | 0.00 | 0.00 | 81 | 1021.3 |
| 20260507212004 | 51 | 198 | 10.0 | 14.0 | 0.00 | 0.00 | 0.00 | 83 | 1021.4 |
| 20260507211004 | 51 | 199 | 11.0 | 13.0 | 0.00 | 0.00 | 0.00 | 85 | 1021.4 |
| 20260507210005 | 51 | 199 | 10.0 | 13.0 | 0.00 | 0.00 | 0.00 | 86 | 1021.3 |
| 20260507205004 | 51 | 206 | 10.0 | 13.0 | 0.00 | 0.00 | 0.00 | 87 | 1021.4 |
| 20260507203005 | 50 | 201 | 8.0 | 13.0 | 0.00 | 0.00 | 0.00 | 90 | 1021.4 |
| 20260507202005 | 50 | 191 | 11.0 | 13.0 | 0.00 | 0.00 | 0.00 | 92 | 1021.2 |
| 20260507200004 | 50 | 182 | 10.0 | 13.0 | 0.00 | 0.00 | 0.00 | 94 | 1021.3 |
| 20260507195004 | 49 | 181 | 9.0 | 14.0 | 0.00 | 0.00 | 0.00 | 96 | 1021.2 |
| 20260507193004 | 49 | 181 | 8.0 | 14.0 | 0.00 | 0.00 | 0.00 | 99 | 1021.3 |
| 20260507192004 | 49 | 185 | 11.0 | 13.0 | 0.00 | 0.00 | 0.00 | 99 | 1021.0 |
| 20260507191004 | 50 | 185 | 8.0 | 9.0 | 0.00 | 0.00 | 0.00 | 99 | 1021.2 |
| 20260507190005 | 49 | 199 | 5.0 | 11.0 | 0.00 | 0.00 | 0.00 | 99 | 1021.0 |
| 20260507185004 | 50 | 200 | 7.0 | 14.0 | 0.00 | 0.00 | 0.00 | 99 | 1021.0 |
| 20260507184004 | 50 | 200 | 11.0 | 15.0 | 0.00 | 0.00 | 0.00 | 99 | 1020.7 |
| 20260507183004 | 50 | 198 | 11.0 | 15.0 | 0.00 | 0.01 | 0.00 | 98 | 1020.6 |
| 20260507180005 | 52 | 200 | 8.0 | 9.0 | 0.00 | 0.01 | 0.00 | 78 | 1020.5 |
| 20260507175004 | 52 | 210 | 6.0 | 8.0 | 0.00 | 0.01 | 0.00 | 73 | 1020.9 |
| 20260507174004 | 52 | 199 | 7.0 | 9.0 | 0.00 | 0.01 | 0.00 | 79 | 1020.7 |
| 20260507173004 | 52 | 204 | 7.0 | 9.0 | 0.00 | 0.01 | 0.00 | 79 | 1020.7 |
| 20260507172004 | 52 | 214 | 8.0 | 9.0 | 0.00 | 0.01 | 0.00 | 75 | 1020.7 |
| 20260507171004 | 52 | 206 | 6.0 | 8.0 | 0.00 | 0.01 | 0.00 | 81 | 1020.8 |
| 20260507165004 | 52 | 221 | 5.0 | 9.0 | 0.00 | 0.01 | 0.00 | 81 | 1020.8 |
| 20260507164004 | 53 | 226 | 4.0 | 11.0 | 0.00 | 0.01 | 0.00 | 79 | 1021.0 |
| 20260507163004 | 52 | 219 | 7.0 | 9.0 | 0.00 | 0.01 | 0.00 | 76 | 1021.2 |
| 20260507161005 | 51 | 199 | 5.0 | 9.0 | 0.00 | 0.01 | 0.00 | 96 | 1021.3 |
| 20260507160005 | 50 | 199 | 6.0 | 8.0 | 0.00 | 0.01 | 0.00 | 97 | 1021.3 |
| 20260507154005 | 51 | 221 | 5.0 | 8.0 | 0.00 | 0.02 | 0.00 | 97 | 1021.2 |
| 20260507153005 | 51 | 214 | 5.0 | 8.0 | 0.00 | 0.02 | 0.00 | 95 | 1021.2 |
| 20260507150006 | 51 | 228 | 7.0 | 13.0 | 0.00 | 0.05 | 0.00 | 97 | 1021.3 |
| 20260507145005 | 51 | 211 | 8.0 | 11.0 | 0.00 | 0.06 | 0.00 | 96 | 1021.3 |
| 20260507144005 | 51 | 222 | 4.0 | 11.0 | 0.00 | 0.08 | 0.00 | 98 | 1021.5 |
| 20260507143005 | 51 | 213 | 4.0 | 14.0 | 0.00 | 0.09 | 0.00 | 95 | 1021.4 |
| 20260507141007 | 53 | 248 | 5.0 | 8.0 | 0.00 | 0.09 | 0.00 | 93 | 1021.3 |
| 20260507140006 | 53 | 239 | 5.0 | 7.0 | 0.00 | 0.09 | 0.00 | 95 | 1021.6 |
| 20260507135005 | 55 | 242 | 5.0 | 7.0 | 0.00 | 0.11 | 0.00 | 90 | 1021.8 |
| 20260507133005 | 54 | 269 | 3.0 | 7.0 | 0.00 | 0.13 | 0.00 | 90 | 1021.7 |
| 20260507132005 | 55 | 259 | 3.0 | 8.0 | 0.00 | 0.13 | 0.00 | 86 | 1021.9 |
| 20260507131005 | 55 | 261 | 4.0 | 11.0 | 0.00 | 0.13 | 0.00 | 82 | 1022.1 |
| 20260507130005 | 55 | 252 | 4.0 | 8.0 | 0.00 | 0.13 | 0.00 | 78 | 1021.8 |
| 20260507125006 | 56 | 235 | 4.0 | 7.0 | 0.00 | 0.14 | 0.00 | 78 | 1022.1 |
| 20260507124005 | 56 | 270 | 1.0 | 7.0 | 0.00 | 0.14 | 0.00 | 76 | 1022.2 |
| 20260507123005 | 56 | 231 | 2.0 | 8.0 | 0.00 | 0.14 | 0.00 | 85 | 1022.2 |
| 20260507122005 | 56 | 269 | 3.0 | 7.0 | 0.00 | 0.14 | 0.00 | 81 | 1022.2 |
| 20260507121005 | 55 | 269 | 4.0 | 8.0 | 0.00 | 0.14 | 0.00 | 79 | 1022.3 |
| 20260507115005 | 56 | 269 | 3.0 | 7.0 | 0.00 | 0.15 | 0.00 | 81 | 1022.3 |
| 20260507113005 | 57 | 244 | 4.0 | 7.0 | 0.00 | 0.19 | 0.00 | 82 | 1022.5 |
| 20260507112005 | 56 | 260 | 3.0 | 8.0 | 0.00 | 0.19 | 0.00 | 80 | 1022.6 |
| 20260507111005 | 57 | 265 | 2.0 | 7.0 | 0.00 | 0.19 | 0.00 | 83 | 1022.5 |
| 20260507105005 | 56 | 203 | 1.0 | 7.0 | 0.00 | 0.19 | 0.00 | 86 | 1022.7 |